Location: Ch�risy
(50.2331°N, 2.9131°E)
Time: 02:22:55
(UTC+00:00)

ERS-2 - Pass Details

Date: 17 January 2021
Orbit: 492 x 497 km, 98.6° (Epoch: 28 February)

Event Time Altitude Azimuth Distance (km) Brightness Sun altitude
Exits shadow 18:46:39 42° 336° (NNW) 720 3.0 -23.3°
Maximum altitude 18:47:29 53° 290° (WNW) 612 2.8 -23.4°
Drops below altitude 10° 18:51:02 10° 212° (SSW) 1,686 5.2 -23.9°
Sets 18:53:06 0° 208° (SSW) 2,563 6.2 -24.3°
